Time,TemperatureF,DewpointF,PressureIn,WindDirection,WindDirectionDegrees,WindSpeedMPH,WindSpeedGustMPH,Humidity,HourlyPrecipIn,Conditions,Clouds,dailyrainin,SolarRadiationWatts/m^2,SoftwareType,DateUTC
2013-03-09 00:00:00,61.0,57.7,29.81,SE,129,8.0,17.0,89,0.00,,---,0.00,0.00,VWS V14.00,2013-03-09 06:00:00,
2013-03-09 00:05:00,60.9,57.6,29.81,SSE,148,8.0,18.0,89,0.00,,---,0.00,0.00,VWS V14.00,2013-03-09 06:05:00,
2013-03-09 00:10:00,60.9,57.6,29.81,SE,142,12.0,18.0,89,0.00,,---,0.00,0.00,VWS V14.00,2013-03-09 06:10:00,
2013-03-09 00:15:00,60.9,57.6,29.81,SSE,152,13.0,17.0,89,0.00,,---,0.00,0.00,VWS V14.00,2013-03-09 06:15:00,
2013-03-09 00:20:00,60.9,57.6,29.81,SE,138,10.0,19.0,89,0.00,,---,0.00,0.00,VWS V14.00,2013-03-09 06:20:00,
2013-03-09 00:25:00,60.9,57.6,29.80,SE,140,12.0,18.0,89,0.00,,---,0.00,0.00,VWS V14.00,2013-03-09 06:25:00,
2013-03-09 00:30:00,60.9,57.6,29.80,SE,130,8.0,18.0,89,0.00,,---,0.00,0.00,VWS V14.00,2013-03-09 06:30:00,
2013-03-09 00:35:00,60.9,57.6,29.80,ESE,123,6.0,11.0,89,0.00,,---,0.00,0.00,VWS V14.00,2013-03-09 06:35:00,
2013-03-09 00:40:00,60.9,58.0,29.79,ESE,119,5.0,11.0,90,0.00,,---,0.00,0.00,VWS V14.00,2013-03-09 06:40:00,
2013-03-09 00:45:00,60.9,58.0,29.79,ESE,121,8.0,14.0,90,0.00,,---,0.00,0.00,VWS V14.00,2013-03-09 06:45:00,
2013-03-09 00:50:00,60.8,57.8,29.78,South,180,7.0,14.0,90,0.00,,---,0.00,0.00,VWS V14.00,2013-03-09 06:50:00,
2013-03-09 00:55:00,60.8,57.8,29.77,ESE,119,7.0,12.0,90,0.00,,---,0.00,0.00,VWS V14.00,2013-03-09 06:55:00,
2013-03-09 01:00:00,60.8,57.8,29.77,ESE,121,6.0,12.0,90,0.00,,---,0.00,0.00,VWS V14.00,2013-03-09 07:00:00,
2013-03-09 01:05:00,60.8,57.8,29.77,East,83,6.0,13.0,90,0.00,,---,0.00,0.00,VWS V14.00,2013-03-09 07:05:00,
2013-03-09 01:10:00,60.8,57.8,29.76,ESE,121,5.0,14.0,90,0.00,,---,0.00,0.00,VWS V14.00,2013-03-09 07:10:00,
2013-03-09 01:15:00,60.8,57.8,29.76,SE,144,6.0,11.0,90,0.00,,---,0.00,0.00,VWS V14.00,2013-03-09 07:15:00,
2013-03-09 01:20:00,60.8,58.2,29.75,ESE,111,5.0,14.0,91,0.00,,---,0.00,0.00,VWS V14.00,2013-03-09 07:20:00,
2013-03-09 01:25:00,60.8,58.2,29.75,ESE,103,6.0,12.0,91,0.00,,---,0.00,0.00,VWS V14.00,2013-03-09 07:25:00,
2013-03-09 01:30:00,60.8,58.2,29.75,SE,134,7.0,13.0,91,0.00,,---,0.00,0.00,VWS V14.00,2013-03-09 07:30:00,
2013-03-09 01:35:00,60.8,58.2,29.74,ESE,115,1.0,8.0,91,0.00,,---,0.00,0.00,VWS V14.00,2013-03-09 07:35:00,
2013-03-09 01:40:00,60.8,58.2,29.73,ESE,123,2.0,13.0,91,0.00,,---,0.00,0.00,VWS V14.00,2013-03-09 07:40:00,
2013-03-09 01:45:00,60.9,58.3,29.73,SE,135,14.0,18.0,91,0.00,,---,0.00,0.00,VWS V14.00,2013-03-09 07:45:00,
2013-03-09 01:50:00,60.9,58.3,29.72,ESE,109,6.0,18.0,91,0.00,,---,0.00,0.00,VWS V14.00,2013-03-09 07:50:00,
2013-03-09 01:55:00,60.9,58.3,29.72,SW,221,8.0,18.0,91,0.00,,---,0.00,0.00,VWS V14.00,2013-03-09 07:55:00,
2013-03-09 02:00:00,61.1,58.5,29.71,ENE,76,7.0,18.0,91,0.00,,---,0.00,0.00,VWS V14.00,2013-03-09 08:00:00,
2013-03-09 02:05:00,61.1,58.5,29.71,SE,144,5.0,17.0,91,0.00,,---,0.00,0.00,VWS V14.00,2013-03-09 08:05:00,
2013-03-09 02:10:00,61.1,58.5,29.70,East,84,17.0,19.0,91,0.00,,---,0.00,0.00,VWS V14.00,2013-03-09 08:10:00,
2013-03-09 02:15:00,61.2,58.6,29.69,SE,138,12.0,15.0,91,0.00,,---,0.00,0.00,VWS V14.00,2013-03-09 08:15:00,
2013-03-09 02:20:00,61.3,58.7,29.70,SSE,161,14.0,18.0,91,0.00,,---,0.00,0.00,VWS V14.00,2013-03-09 08:20:00,
2013-03-09 02:25:00,61.3,58.7,29.69,SSE,148,8.0,20.0,91,0.00,,---,0.00,0.00,VWS V14.00,2013-03-09 08:25:00,
2013-03-09 02:30:00,61.3,58.7,29.68,SE,127,12.0,20.0,91,0.00,,---,0.00,0.00,VWS V14.00,2013-03-09 08:30:00,
2013-03-09 02:35:00,61.3,58.7,29.68,SSE,151,16.0,26.0,91,0.00,,---,0.00,0.00,VWS V14.00,2013-03-09 08:35:00,
2013-03-09 02:40:00,61.3,58.7,29.67,ESE,113,15.0,26.0,91,0.00,,---,0.00,0.00,VWS V14.00,2013-03-09 08:40:00,
2013-03-09 02:45:00,61.3,58.7,29.67,SSE,153,14.0,18.0,91,0.00,,---,0.00,0.00,VWS V14.00,2013-03-09 08:45:00,
2013-03-09 02:50:00,61.3,58.7,29.67,SSE,148,21.0,23.0,91,0.00,,---,0.00,0.00,VWS V14.00,2013-03-09 08:50:00,
2013-03-09 02:55:00,61.3,58.7,29.67,SSE,159,10.0,23.0,91,0.00,,---,0.00,0.00,VWS V14.00,2013-03-09 08:55:00,
2013-03-09 03:00:00,61.3,58.7,29.66,SE,145,5.0,27.0,91,0.00,,---,0.00,0.00,VWS V14.00,2013-03-09 09:00:00,
2013-03-09 03:05:00,61.4,58.8,29.66,SSE,149,7.0,23.0,91,0.00,,---,0.00,0.00,VWS V14.00,2013-03-09 09:05:00,
2013-03-09 03:10:00,61.4,58.8,29.66,SE,129,17.0,26.0,91,0.00,,---,0.00,0.00,VWS V14.00,2013-03-09 09:10:00,
2013-03-09 03:15:00,61.4,58.8,29.66,SSE,148,14.0,25.0,91,0.00,,---,0.00,0.00,VWS V14.00,2013-03-09 09:15:00,
2013-03-09 03:20:00,61.4,58.8,29.65,SSE,152,8.0,25.0,91,0.00,,---,0.00,0.00,VWS V14.00,2013-03-09 09:20:00,
2013-03-09 03:25:00,61.4,58.8,29.66,SSE,150,19.0,24.0,91,0.00,,---,0.00,0.00,VWS V14.00,2013-03-09 09:25:00,
2013-03-09 03:30:00,61.4,58.8,29.65,SE,129,14.0,24.0,91,0.00,,---,0.00,0.00,VWS V14.00,2013-03-09 09:30:00,
2013-03-09 03:35:00,61.5,58.8,29.65,SSE,158,23.0,23.0,91,0.00,,---,0.00,0.00,VWS V14.00,2013-03-09 09:35:00,
2013-03-09 03:40:00,61.5,58.8,29.65,SE,146,6.0,23.0,91,0.00,,---,0.00,0.00,VWS V14.00,2013-03-09 09:40:00,
2013-03-09 03:45:00,61.5,58.8,29.64,SE,140,18.0,26.0,91,0.00,,---,0.00,0.00,VWS V14.00,2013-03-09 09:45:00,
2013-03-09 03:50:00,61.6,59.0,29.65,SSE,155,9.0,26.0,91,0.00,,---,0.00,0.00,VWS V14.00,2013-03-09 09:50:00,
2013-03-09 03:55:00,61.7,59.0,29.65,SSE,164,12.0,22.0,91,0.00,,---,0.00,0.00,VWS V14.00,2013-03-09 09:55:00,
2013-03-09 04:00:00,61.8,59.2,29.65,SSE,151,8.0,27.0,91,0.00,,---,0.00,0.00,VWS V14.00,2013-03-09 10:00:00,
2013-03-09 04:05:00,61.8,59.2,29.65,SSE,152,11.0,16.0,91,0.00,,---,0.00,0.00,VWS V14.00,2013-03-09 10:05:00,
2013-03-09 04:10:00,61.9,59.2,29.65,SE,139,8.0,28.0,91,0.00,,---,0.00,0.00,VWS V14.00,2013-03-09 10:10:00,
2013-03-09 04:15:00,62.0,59.3,29.65,South,175,15.0,21.0,91,0.00,,---,0.00,0.00,VWS V14.00,2013-03-09 10:15:00,
2013-03-09 04:20:00,62.1,59.1,29.64,SSE,148,13.0,22.0,90,0.00,,---,0.00,0.00,VWS V14.00,2013-03-09 10:20:00,
2013-03-09 04:25:00,62.1,59.1,29.64,SE,134,17.0,25.0,90,0.00,,---,0.00,0.00,VWS V14.00,2013-03-09 10:25:00,
2013-03-09 04:30:00,62.1,59.1,29.64,SE,144,15.0,26.0,90,0.00,,---,0.00,0.00,VWS V14.00,2013-03-09 10:30:00,
2013-03-09 04:35:00,62.1,59.1,29.64,SSE,159,11.0,20.0,90,0.00,,---,0.00,0.00,VWS V14.00,2013-03-09 10:35:00,
2013-03-09 04:40:00,62.1,59.1,29.64,ESE,118,16.0,28.0,90,0.00,,---,0.00,0.00,VWS V14.00,2013-03-09 10:40:00,
2013-03-09 04:45:00,62.1,59.1,29.63,SE,135,4.0,17.0,90,0.00,,---,0.00,0.00,VWS V14.00,2013-03-09 10:45:00,
2013-03-09 04:50:00,62.1,59.1,29.63,SSE,155,15.0,23.0,90,0.00,,---,0.00,0.00,VWS V14.00,2013-03-09 10:50:00,
2013-03-09 04:55:00,62.2,59.2,29.64,SSW,192,8.0,24.0,90,0.00,,---,0.00,0.00,VWS V14.00,2013-03-09 10:55:00,
2013-03-09 05:00:00,62.2,59.2,29.64,SSE,163,7.0,24.0,90,0.00,,---,0.00,0.00,VWS V14.00,2013-03-09 11:00:00,
2013-03-09 05:05:00,62.2,59.2,29.63,South,181,8.0,17.0,90,0.00,,---,0.00,0.00,VWS V14.00,2013-03-09 11:05:00,
2013-03-09 05:10:00,62.3,59.3,29.63,SE,132,15.0,29.0,90,0.00,,---,0.00,0.00,VWS V14.00,2013-03-09 11:10:00,
2013-03-09 05:15:00,62.2,59.2,29.63,SSE,153,12.0,24.0,90,0.00,,---,0.00,0.00,VWS V14.00,2013-03-09 11:15:00,
2013-03-09 05:20:00,62.2,59.2,29.64,SSE,150,10.0,24.0,90,0.00,,---,0.00,0.00,VWS V14.00,2013-03-09 11:20:00,
2013-03-09 05:25:00,62.2,59.2,29.64,SE,145,8.0,19.0,90,0.00,,---,0.00,0.00,VWS V14.00,2013-03-09 11:25:00,
2013-03-09 05:30:00,62.2,59.2,29.64,ESE,121,14.0,19.0,90,0.00,,---,0.00,0.00,VWS V14.00,2013-03-09 11:30:00,
2013-03-09 05:35:00,62.2,59.2,29.64,South,184,13.0,18.0,90,0.00,,---,0.00,0.00,VWS V14.00,2013-03-09 11:35:00,
2013-03-09 05:40:00,62.2,59.2,29.63,SE,134,2.0,19.0,90,0.00,,---,0.00,0.00,VWS V14.00,2013-03-09 11:40:00,
2013-03-09 05:45:00,62.3,59.3,29.64,SSE,150,9.0,19.0,90,0.00,,---,0.00,0.00,VWS V14.00,2013-03-09 11:45:00,
2013-03-09 05:50:00,62.3,59.3,29.63,SSE,156,9.0,19.0,90,0.00,,---,0.00,0.00,VWS V14.00,2013-03-09 11:50:00,
2013-03-09 05:55:00,62.3,59.6,29.64,SE,146,10.0,18.0,91,0.00,,---,0.00,0.00,VWS V14.00,2013-03-09 11:55:00,
2013-03-09 06:00:00,62.3,59.3,29.64,SSE,155,5.0,18.0,90,0.00,,---,0.00,0.00,VWS V14.00,2013-03-09 12:00:00,
2013-03-09 06:05:00,62.3,59.6,29.64,SSE,153,7.0,14.0,91,0.00,,---,0.00,0.00,VWS V14.00,2013-03-09 12:05:00,
2013-03-09 06:09:00,62.4,59.7,29.64,SE,130,11.0,24.0,91,0.00,,---,0.00,0.00,VWS V14.00,2013-03-09 12:09:00,
2013-03-09 06:14:00,62.5,59.5,29.64,SE,134,12.0,21.0,90,0.00,,---,0.00,0.00,VWS V14.00,2013-03-09 12:14:00,
2013-03-09 06:19:00,62.5,59.5,29.64,SSE,160,6.0,21.0,90,0.00,,---,0.00,0.00,VWS V14.00,2013-03-09 12:19:00,
2013-03-09 06:24:00,62.5,59.5,29.64,South,190,7.0,21.0,90,0.00,,---,0.00,0.00,VWS V14.00,2013-03-09 12:24:00,
2013-03-09 06:29:00,62.5,59.8,29.64,SE,126,13.0,22.0,91,0.00,,---,0.00,0.00,VWS V14.00,2013-03-09 12:29:00,
2013-03-09 06:34:00,62.6,59.6,29.64,SSE,155,7.0,17.0,90,0.00,,---,0.00,0.00,VWS V14.00,2013-03-09 12:34:00,
2013-03-09 06:39:00,62.7,59.7,29.64,SE,137,11.0,18.0,90,0.00,,---,0.00,0.00,VWS V14.00,2013-03-09 12:39:00,
2013-03-09 06:44:00,62.7,60.0,29.64,SSW,207,11.0,15.0,91,0.00,,---,0.00,0.00,VWS V14.00,2013-03-09 12:44:00,
2013-03-09 06:49:00,62.7,60.0,29.64,SE,145,7.0,23.0,91,0.00,,---,0.00,0.00,VWS V14.00,2013-03-09 12:49:00,
2013-03-09 06:54:00,62.8,59.8,29.63,SE,146,14.0,21.0,90,0.00,,---,0.00,5.00,VWS V14.00,2013-03-09 12:54:00,
2013-03-09 06:59:00,62.9,59.9,29.64,ESE,115,11.0,25.0,90,0.00,,---,0.00,9.00,VWS V14.00,2013-03-09 12:59:00,
2013-03-09 07:04:00,63.0,60.0,29.63,SSW,199,10.0,17.0,90,0.00,,---,0.00,14.00,VWS V14.00,2013-03-09 13:04:00,
2013-03-09 07:09:00,63.1,60.1,29.63,SSW,197,4.0,22.0,90,0.00,,---,0.00,18.00,VWS V14.00,2013-03-09 13:09:00,
2013-03-09 07:14:00,63.1,60.1,29.63,South,182,5.0,21.0,90,0.00,,---,0.00,25.00,VWS V14.00,2013-03-09 13:14:00,
2013-03-09 07:19:00,63.2,60.2,29.63,South,169,2.0,22.0,90,0.00,,---,0.00,30.00,VWS V14.00,2013-03-09 13:19:00,
2013-03-09 07:24:00,63.2,60.2,29.63,SSE,148,10.0,17.0,90,0.00,,---,0.00,32.00,VWS V14.00,2013-03-09 13:24:00,
2013-03-09 07:29:00,63.3,60.3,29.64,ESE,110,8.0,22.0,90,0.00,,---,0.00,40.00,VWS V14.00,2013-03-09 13:29:00,
2013-03-09 07:34:00,63.4,60.1,29.63,SE,146,11.0,17.0,89,0.00,,---,0.00,54.00,VWS V14.00,2013-03-09 13:34:00,
2013-03-09 07:39:00,63.6,60.3,29.63,SE,134,13.0,17.0,89,0.00,,---,0.00,98.00,VWS V14.00,2013-03-09 13:39:00,
2013-03-09 07:44:00,63.8,60.5,29.64,SE,144,7.0,21.0,89,0.00,,---,0.00,98.00,VWS V14.00,2013-03-09 13:44:00,
2013-03-09 07:49:00,63.9,60.6,29.63,SE,146,7.0,21.0,89,0.00,,---,0.00,67.00,VWS V14.00,2013-03-09 13:49:00,
2013-03-09 07:54:00,64.0,60.7,29.63,SE,134,11.0,22.0,89,0.00,,---,0.00,83.00,VWS V14.00,2013-03-09 13:54:00,
2013-03-09 07:59:00,64.1,60.5,29.63,South,181,11.0,22.0,88,0.00,,---,0.00,132.00,VWS V14.00,2013-03-09 13:59:00,
2013-03-09 08:04:00,64.2,60.6,29.63,SSE,155,11.0,18.0,88,0.00,,---,0.00,77.00,VWS V14.00,2013-03-09 14:04:00,
2013-03-09 08:09:00,64.3,60.7,29.62,SE,138,13.0,24.0,88,0.00,,---,0.00,142.00,VWS V14.00,2013-03-09 14:09:00,
2013-03-09 08:14:00,64.4,61.1,29.62,SE,132,9.0,17.0,89,0.00,,---,0.00,257.00,VWS V14.00,2013-03-09 14:14:00,
2013-03-09 08:19:00,64.7,61.1,29.62,SSE,162,15.0,30.0,88,0.00,,---,0.00,102.00,VWS V14.00,2013-03-09 14:19:00,
2013-03-09 08:24:00,64.8,61.2,29.62,ESE,106,19.0,19.0,88,0.00,,---,0.00,153.00,VWS V14.00,2013-03-09 14:24:00,
2013-03-09 08:29:00,64.8,60.8,29.63,South,178,12.0,25.0,87,0.00,,---,0.00,134.00,VWS V14.00,2013-03-09 14:29:00,
2013-03-09 08:34:00,64.9,60.9,29.63,SE,133,13.0,21.0,87,0.00,,---,0.00,139.00,VWS V14.00,2013-03-09 14:34:00,
2013-03-09 08:39:00,65.2,61.2,29.63,SSE,148,17.0,22.0,87,0.00,,---,0.00,197.00,VWS V14.00,2013-03-09 14:39:00,
2013-03-09 08:44:00,65.3,61.3,29.63,South,177,13.0,21.0,87,0.00,,---,0.00,155.00,VWS V14.00,2013-03-09 14:44:00,
2013-03-09 08:49:00,65.3,61.3,29.63,SSE,162,4.0,21.0,87,0.00,,---,0.00,181.00,VWS V14.00,2013-03-09 14:49:00,
2013-03-09 08:54:00,65.4,61.4,29.62,SSE,150,12.0,19.0,87,0.00,,---,0.00,197.00,VWS V14.00,2013-03-09 14:54:00,
2013-03-09 08:59:00,65.5,61.2,29.63,SE,132,13.0,21.0,86,0.00,,---,0.00,195.00,VWS V14.00,2013-03-09 14:59:00,
2013-03-09 09:04:00,65.5,61.5,29.62,SSE,153,11.0,21.0,87,0.00,,---,0.00,195.00,VWS V14.00,2013-03-09 15:04:00,
2013-03-09 09:09:00,65.6,61.6,29.62,SSW,192,11.0,22.0,87,0.00,,---,0.00,225.00,VWS V14.00,2013-03-09 15:09:00,
2013-03-09 09:14:00,65.9,61.6,29.62,SSE,149,14.0,20.0,86,0.00,,---,0.00,258.00,VWS V14.00,2013-03-09 15:14:00,
2013-03-09 09:19:00,66.1,61.8,29.62,SSE,159,18.0,20.0,86,0.00,,---,0.00,251.00,VWS V14.00,2013-03-09 15:19:00,
2013-03-09 09:24:00,66.2,61.9,29.62,SE,141,9.0,22.0,86,0.00,,---,0.00,197.00,VWS V14.00,2013-03-09 15:24:00,
2013-03-09 09:29:00,66.4,62.1,29.61,SSE,167,8.0,24.0,86,0.00,,---,0.00,253.00,VWS V14.00,2013-03-09 15:29:00,
2013-03-09 09:34:00,66.5,61.9,29.61,SE,142,14.0,22.0,85,0.00,,---,0.00,241.00,VWS V14.00,2013-03-09 15:34:00,
2013-03-09 09:39:00,66.8,62.2,29.62,SSE,165,6.0,26.0,85,0.00,,---,0.00,299.00,VWS V14.00,2013-03-09 15:39:00,
2013-03-09 09:44:00,67.0,62.3,29.62,SE,139,9.0,23.0,85,0.00,,---,0.00,227.00,VWS V14.00,2013-03-09 15:44:00,
2013-03-09 09:49:00,67.4,62.1,29.62,ESE,119,19.0,25.0,83,0.00,,---,0.00,301.00,VWS V14.00,2013-03-09 15:49:00,
2013-03-09 09:54:00,67.7,62.4,29.61,South,175,15.0,24.0,83,0.00,,---,0.00,283.00,VWS V14.00,2013-03-09 15:54:00,
2013-03-09 09:59:00,67.7,62.4,29.62,ESE,104,8.0,26.0,83,0.00,,---,0.00,246.00,VWS V14.00,2013-03-09 15:59:00,
2013-03-09 10:04:00,68.0,62.3,29.61,SSE,155,12.0,19.0,82,0.00,,---,0.00,237.00,VWS V14.00,2013-03-09 16:04:00,
2013-03-09 10:09:00,68.2,62.5,29.61,SSW,200,8.0,29.0,82,0.00,,---,0.00,290.00,VWS V14.00,2013-03-09 16:09:00,
2013-03-09 10:14:00,68.5,62.5,29.61,SE,146,10.0,28.0,81,0.00,,---,0.00,295.00,VWS V14.00,2013-03-09 16:14:00,
2013-03-09 10:19:00,68.9,62.8,29.61,SSE,148,12.0,28.0,81,0.00,,---,0.00,334.00,VWS V14.00,2013-03-09 16:19:00,
2013-03-09 10:24:00,69.2,62.8,29.60,SSE,151,10.0,18.0,80,0.00,,---,0.00,705.00,VWS V14.00,2013-03-09 16:24:00,
2013-03-09 10:29:00,69.7,62.9,29.60,SE,135,17.0,20.0,79,0.00,,---,0.00,631.00,VWS V14.00,2013-03-09 16:29:00,
2013-03-09 10:34:00,70.2,63.0,29.60,SE,142,19.0,25.0,78,0.00,,---,0.00,729.00,VWS V14.00,2013-03-09 16:34:00,
2013-03-09 10:39:00,70.2,62.7,29.60,SSW,196,9.0,30.0,77,0.00,,---,0.00,510.00,VWS V14.00,2013-03-09 16:39:00,
2013-03-09 10:44:00,70.3,62.8,29.60,SE,145,10.0,27.0,77,0.00,,---,0.00,715.00,VWS V14.00,2013-03-09 16:44:00,
2013-03-09 10:49:00,70.3,62.8,29.60,SE,146,11.0,29.0,77,0.00,,---,0.00,747.00,VWS V14.00,2013-03-09 16:49:00,
2013-03-09 10:54:00,70.5,63.0,29.60,SE,137,12.0,23.0,77,0.00,,---,0.00,749.00,VWS V14.00,2013-03-09 16:54:00,
2013-03-09 10:59:00,71.0,63.4,29.60,SE,145,10.0,23.0,77,0.00,,---,0.00,770.00,VWS V14.00,2013-03-09 16:59:00,
2013-03-09 11:04:00,71.3,63.0,29.60,SSE,147,13.0,19.0,75,0.00,,---,0.00,770.00,VWS V14.00,2013-03-09 17:04:00,
2013-03-09 11:09:00,71.2,62.9,29.61,SSW,202,11.0,23.0,75,0.00,,---,0.00,404.00,VWS V14.00,2013-03-09 17:09:00,
2013-03-09 11:14:00,70.7,62.8,29.61,SSW,203,8.0,21.0,76,0.00,,---,0.00,489.00,VWS V14.00,2013-03-09 17:14:00,
2013-03-09 11:19:00,70.9,63.3,29.61,SSW,194,6.0,21.0,77,0.00,,---,0.00,916.00,VWS V14.00,2013-03-09 17:19:00,
2013-03-09 11:24:00,71.0,63.1,29.62,SSW,205,7.0,23.0,76,0.00,,---,0.00,415.00,VWS V14.00,2013-03-09 17:24:00,
2013-03-09 11:29:00,70.6,62.7,29.61,SE,143,22.0,26.0,76,0.00,,---,0.00,503.00,VWS V14.00,2013-03-09 17:29:00,
2013-03-09 11:34:00,70.4,62.8,29.62,South,188,7.0,18.0,77,0.00,,---,0.00,313.00,VWS V14.00,2013-03-09 17:34:00,
2013-03-09 11:39:00,70.6,63.0,29.62,ESE,119,15.0,22.0,77,0.00,,---,0.00,517.00,VWS V14.00,2013-03-09 17:39:00,
2013-03-09 11:44:00,70.7,62.8,29.62,South,170,7.0,22.0,76,0.00,,---,0.00,418.00,VWS V14.00,2013-03-09 17:44:00,
2013-03-09 11:49:00,70.5,62.6,29.62,South,179,4.0,22.0,76,0.00,,---,0.00,183.00,VWS V14.00,2013-03-09 17:49:00,
2013-03-09 11:54:00,69.9,62.4,29.62,WSW,243,8.0,11.0,77,0.00,,---,0.00,90.00,VWS V14.00,2013-03-09 17:54:00,
2013-03-09 11:59:00,69.4,62.2,29.63,SSW,195,5.0,17.0,78,0.00,,---,0.00,102.00,VWS V14.00,2013-03-09 17:59:00,
2013-03-09 12:04:00,69.0,62.2,29.62,SW,220,3.0,12.0,79,0.00,,---,0.00,93.00,VWS V14.00,2013-03-09 18:04:00,
2013-03-09 12:09:00,68.6,62.2,29.62,SSE,163,6.0,17.0,80,0.00,,---,0.00,120.00,VWS V14.00,2013-03-09 18:09:00,
2013-03-09 12:14:00,68.4,62.0,29.62,South,175,10.0,11.0,80,0.00,,---,0.00,123.00,VWS V14.00,2013-03-09 18:14:00,
2013-03-09 12:19:00,68.1,62.1,29.62,South,184,7.0,20.0,81,0.00,,---,0.00,109.00,VWS V14.00,2013-03-09 18:19:00,
2013-03-09 12:24:00,67.9,61.9,29.62,South,184,3.0,12.0,81,0.00,,---,0.00,109.00,VWS V14.00,2013-03-09 18:24:00,
2013-03-09 12:29:00,67.7,62.0,29.61,South,180,4.0,18.0,82,0.00,,---,0.00,114.00,VWS V14.00,2013-03-09 18:29:00,
2013-03-09 12:34:00,67.5,62.2,29.61,SSE,160,5.0,19.0,83,0.00,,---,0.00,111.00,VWS V14.00,2013-03-09 18:34:00,
2013-03-09 12:39:00,67.3,62.0,29.60,SSE,154,8.0,19.0,83,0.00,,---,0.00,146.00,VWS V14.00,2013-03-09 18:39:00,
2013-03-09 12:44:00,67.2,62.2,29.60,SE,131,11.0,18.0,84,0.00,,---,0.00,128.00,VWS V14.00,2013-03-09 18:44:00,
2013-03-09 12:49:00,67.1,62.1,29.60,SW,215,5.0,18.0,84,0.00,,---,0.00,195.00,VWS V14.00,2013-03-09 18:49:00,
2013-03-09 12:54:00,67.2,62.2,29.59,SE,138,7.0,11.0,84,0.00,,---,0.00,176.00,VWS V14.00,2013-03-09 18:54:00,
2013-03-09 12:59:00,67.4,62.4,29.59,South,178,6.0,19.0,84,0.00,,---,0.00,244.00,VWS V14.00,2013-03-09 18:59:00,
2013-03-09 13:04:00,67.5,62.5,29.59,South,178,2.0,9.0,84,0.00,,---,0.00,197.00,VWS V14.00,2013-03-09 19:04:00,
2013-03-09 13:09:00,67.6,62.3,29.58,SE,142,8.0,17.0,83,0.00,,---,0.00,213.00,VWS V14.00,2013-03-09 19:09:00,
2013-03-09 13:14:00,67.8,62.5,29.57,ESE,115,6.0,15.0,83,0.00,,---,0.00,343.00,VWS V14.00,2013-03-09 19:14:00,
2013-03-09 13:19:00,68.1,62.8,29.57,SSW,196,5.0,15.0,83,0.00,,---,0.00,315.00,VWS V14.00,2013-03-09 19:19:00,
2013-03-09 13:24:00,68.5,62.8,29.57,SE,124,12.0,15.0,82,0.00,,---,0.00,439.00,VWS V14.00,2013-03-09 19:24:00,
2013-03-09 13:29:00,69.0,63.3,29.56,SSE,159,5.0,15.0,82,0.00,,---,0.00,434.00,VWS V14.00,2013-03-09 19:29:00,
2013-03-09 13:34:00,69.4,63.3,29.56,SSE,162,8.0,12.0,81,0.00,,---,0.00,563.00,VWS V14.00,2013-03-09 19:34:00,
2013-03-09 13:39:00,69.8,63.4,29.55,SSE,160,7.0,12.0,80,0.00,,---,0.00,475.00,VWS V14.00,2013-03-09 19:39:00,
2013-03-09 13:44:00,70.4,63.6,29.55,SE,145,10.0,17.0,79,0.00,,---,0.00,541.00,VWS V14.00,2013-03-09 19:44:00,
2013-03-09 13:49:00,71.0,63.4,29.55,SSE,156,10.0,20.0,77,0.00,,---,0.00,438.00,VWS V14.00,2013-03-09 19:49:00,
2013-03-09 13:54:00,71.1,63.2,29.54,SSE,157,11.0,20.0,76,0.00,,---,0.00,610.00,VWS V14.00,2013-03-09 19:54:00,
2013-03-09 13:59:00,71.2,63.6,29.53,SSW,194,3.0,20.0,77,0.00,,---,0.00,320.00,VWS V14.00,2013-03-09 19:59:00,
2013-03-09 14:04:00,71.3,63.0,29.53,SE,136,12.0,15.0,75,0.00,,---,0.00,334.00,VWS V14.00,2013-03-09 20:04:00,
2013-03-09 14:09:00,71.0,63.1,29.52,SE,137,11.0,15.0,76,0.00,,---,0.00,390.00,VWS V14.00,2013-03-09 20:09:00,
2013-03-09 14:14:00,71.0,62.7,29.52,SSE,162,8.0,21.0,75,0.00,,---,0.00,316.00,VWS V14.00,2013-03-09 20:14:00,
2013-03-09 14:19:00,71.2,62.9,29.51,SSE,168,7.0,21.0,75,0.00,,---,0.00,531.00,VWS V14.00,2013-03-09 20:19:00,
2013-03-09 14:24:00,71.5,62.8,29.51,SE,146,12.0,17.0,74,0.00,,---,0.00,380.00,VWS V14.00,2013-03-09 20:24:00,
2013-03-09 14:29:00,71.9,63.2,29.50,SE,127,9.0,20.0,74,0.00,,---,0.00,533.00,VWS V14.00,2013-03-09 20:29:00,
2013-03-09 14:34:00,72.1,63.4,29.50,SSE,164,13.0,13.0,74,0.00,,---,0.00,322.00,VWS V14.00,2013-03-09 20:34:00,
2013-03-09 14:39:00,72.6,63.5,29.50,South,176,6.0,15.0,73,0.00,,---,0.00,800.00,VWS V14.00,2013-03-09 20:39:00,
2013-03-09 14:44:00,73.2,63.2,29.50,South,175,6.0,20.0,71,0.00,,---,0.00,856.00,VWS V14.00,2013-03-09 20:44:00,
2013-03-09 14:49:00,73.4,62.6,29.49,SSE,160,8.0,20.0,69,0.00,,---,0.00,872.00,VWS V14.00,2013-03-09 20:49:00,
2013-03-09 14:54:00,73.9,63.1,29.49,SSE,167,6.0,17.0,69,0.00,,---,0.00,902.00,VWS V14.00,2013-03-09 20:54:00,
2013-03-09 14:59:00,74.3,63.5,29.48,SSE,153,5.0,17.0,69,0.00,,---,0.00,838.00,VWS V14.00,2013-03-09 20:59:00,
2013-03-09 15:04:00,74.7,63.0,29.49,SSE,159,10.0,20.0,67,0.00,,---,0.00,812.00,VWS V14.00,2013-03-09 21:04:00,
2013-03-09 15:09:00,74.9,62.8,29.49,SE,139,6.0,20.0,66,0.00,,---,0.00,366.00,VWS V14.00,2013-03-09 21:09:00,
2013-03-09 15:14:00,74.9,62.8,29.49,SSE,153,5.0,12.0,66,0.00,,---,0.00,237.00,VWS V14.00,2013-03-09 21:14:00,
2013-03-09 15:19:00,74.6,62.5,29.49,South,171,6.0,17.0,66,0.00,,---,0.00,276.00,VWS V14.00,2013-03-09 21:19:00,
2013-03-09 15:24:00,74.1,62.9,29.49,South,173,5.0,11.0,68,0.00,,---,0.00,229.00,VWS V14.00,2013-03-09 21:24:00,
2013-03-09 15:29:00,74.2,62.5,29.48,SSE,148,8.0,16.0,67,0.00,,---,0.00,220.00,VWS V14.00,2013-03-09 21:29:00,
2013-03-09 15:34:00,74.4,62.7,29.48,SE,146,9.0,14.0,67,0.00,,---,0.00,272.00,VWS V14.00,2013-03-09 21:34:00,
2013-03-09 15:39:00,74.3,63.5,29.47,SE,128,13.0,17.0,69,0.00,,---,0.00,264.00,VWS V14.00,2013-03-09 21:39:00,
2013-03-09 15:44:00,74.2,63.4,29.47,SE,126,11.0,14.0,69,0.00,,---,0.00,643.00,VWS V14.00,2013-03-09 21:44:00,
2013-03-09 15:49:00,74.4,63.2,29.46,SE,137,12.0,19.0,68,0.00,,---,0.00,631.00,VWS V14.00,2013-03-09 21:49:00,
2013-03-09 15:54:00,74.6,62.9,29.46,South,175,7.0,15.0,67,0.00,,---,0.00,552.00,VWS V14.00,2013-03-09 21:54:00,
2013-03-09 15:59:00,74.8,63.1,29.47,SSE,152,14.0,15.0,67,0.00,,---,0.00,533.00,VWS V14.00,2013-03-09 21:59:00,
2013-03-09 16:04:00,75.0,62.9,29.47,SE,144,13.0,14.0,66,0.00,,---,0.00,229.00,VWS V14.00,2013-03-09 22:04:00,
2013-03-09 16:09:00,75.1,63.0,29.47,SE,142,6.0,17.0,66,0.00,,---,0.00,179.00,VWS V14.00,2013-03-09 22:09:00,
2013-03-09 16:14:00,74.9,62.8,29.47,SE,138,11.0,14.0,66,0.00,,---,0.00,125.00,VWS V14.00,2013-03-09 22:14:00,
2013-03-09 16:19:00,74.6,62.9,29.46,SE,144,7.0,14.0,67,0.00,,---,0.00,142.00,VWS V14.00,2013-03-09 22:19:00,
2013-03-09 16:24:00,74.4,63.2,29.47,South,171,14.0,17.0,68,0.00,,---,0.00,209.00,VWS V14.00,2013-03-09 22:24:00,
2013-03-09 16:29:00,74.4,63.2,29.46,SE,138,10.0,17.0,68,0.00,,---,0.00,218.00,VWS V14.00,2013-03-09 22:29:00,
2013-03-09 16:34:00,74.3,63.1,29.46,SE,146,7.0,14.0,68,0.00,,---,0.00,171.00,VWS V14.00,2013-03-09 22:34:00,
2013-03-09 16:39:00,74.6,62.9,29.46,SSE,159,5.0,14.0,67,0.00,,---,0.00,462.00,VWS V14.00,2013-03-09 22:39:00,
2013-03-09 16:44:00,75.2,63.5,29.46,SSE,154,7.0,9.0,67,0.00,,---,0.00,422.00,VWS V14.00,2013-03-09 22:44:00,
2013-03-09 16:49:00,75.8,64.1,29.46,ESE,123,9.0,15.0,67,0.00,,---,0.00,346.00,VWS V14.00,2013-03-09 22:49:00,
2013-03-09 16:54:00,75.4,63.7,29.46,SE,134,11.0,16.0,67,0.00,,---,0.00,188.00,VWS V14.00,2013-03-09 22:54:00,
2013-03-09 16:59:00,75.0,63.7,29.45,SSE,167,7.0,18.0,68,0.00,,---,0.00,318.00,VWS V14.00,2013-03-09 22:59:00,
2013-03-09 17:04:00,74.9,63.6,29.46,SSE,149,11.0,12.0,68,0.00,,---,0.00,281.00,VWS V14.00,2013-03-09 23:04:00,
2013-03-09 17:09:00,74.7,63.5,29.45,ESE,117,5.0,15.0,68,0.00,,---,0.00,202.00,VWS V14.00,2013-03-09 23:09:00,
2013-03-09 17:14:00,74.5,63.7,29.45,ESE,120,2.0,9.0,69,0.00,,---,0.00,105.00,VWS V14.00,2013-03-09 23:14:00,
2013-03-09 17:19:00,74.3,63.5,29.45,SE,141,11.0,17.0,69,0.00,,---,0.00,91.00,VWS V14.00,2013-03-09 23:19:00,
2013-03-09 17:24:00,73.9,63.5,29.45,SSE,147,7.0,12.0,70,0.00,,---,0.00,193.00,VWS V14.00,2013-03-09 23:24:00,
2013-03-09 17:29:00,73.8,63.4,29.44,SE,133,9.0,14.0,70,0.00,,---,0.00,83.00,VWS V14.00,2013-03-09 23:29:00,
2013-03-09 17:34:00,73.6,63.6,29.44,ESE,121,9.0,18.0,71,0.00,,---,0.00,167.00,VWS V14.00,2013-03-09 23:34:00,
2013-03-09 17:39:00,73.5,63.5,29.43,SSE,164,7.0,18.0,71,0.00,,---,0.00,142.00,VWS V14.00,2013-03-09 23:39:00,
2013-03-09 17:44:00,73.3,63.3,29.43,SE,142,8.0,12.0,71,0.00,,---,0.00,123.00,VWS V14.00,2013-03-09 23:44:00,
2013-03-09 17:49:00,73.3,63.3,29.43,SE,124,9.0,12.0,71,0.00,,---,0.00,111.00,VWS V14.00,2013-03-09 23:49:00,
2013-03-09 17:54:00,73.3,63.3,29.43,SE,131,11.0,14.0,71,0.00,,---,0.00,91.00,VWS V14.00,2013-03-09 23:54:00,
2013-03-09 17:59:00,73.1,63.5,29.43,SE,128,6.0,14.0,72,0.00,,---,0.00,74.00,VWS V14.00,2013-03-09 23:59:00,
2013-03-09 18:04:00,73.0,63.5,29.43,ESE,116,9.0,10.0,72,0.00,,---,0.00,28.00,VWS V14.00,2013-03-10 00:04:00,
2013-03-09 18:09:00,72.6,63.5,29.42,SE,128,12.0,13.0,73,0.00,,---,0.00,18.00,VWS V14.00,2013-03-10 00:09:00,
2013-03-09 18:14:00,72.3,63.2,29.42,SE,140,10.0,12.0,73,0.00,,---,0.00,14.00,VWS V14.00,2013-03-10 00:14:00,
2013-03-09 18:19:00,72.0,63.7,29.42,SE,127,9.0,21.0,75,0.00,,---,0.00,12.00,VWS V14.00,2013-03-10 00:19:00,
2013-03-09 18:24:00,71.5,63.5,29.41,ESE,118,11.0,12.0,76,0.00,,---,0.00,16.00,VWS V14.00,2013-03-10 00:24:00,
2013-03-09 18:29:00,71.1,63.5,29.41,SE,136,8.0,20.0,77,0.00,,---,0.00,7.00,VWS V14.00,2013-03-10 00:29:00,
2013-03-09 18:34:00,70.8,63.6,29.41,SE,136,12.0,22.0,78,0.00,,---,0.00,0.00,VWS V14.00,2013-03-10 00:34:00,
2013-03-09 18:39:00,70.4,63.6,29.40,SE,142,8.0,22.0,79,0.00,,---,0.00,0.00,VWS V14.00,2013-03-10 00:39:00,
2013-03-09 18:44:00,70.0,63.2,29.40,SE,146,12.0,21.0,79,0.00,,---,0.00,0.00,VWS V14.00,2013-03-10 00:44:00,
2013-03-09 18:49:00,69.7,63.3,29.40,ESE,120,6.0,21.0,80,0.00,,---,0.00,0.00,VWS V14.00,2013-03-10 00:49:00,
2013-03-09 18:54:00,69.4,63.0,29.40,SE,131,8.0,12.0,80,0.00,,---,0.00,0.00,VWS V14.00,2013-03-10 00:54:00,
2013-03-09 18:59:00,69.2,63.1,29.39,SE,133,8.0,15.0,81,0.00,,---,0.00,0.00,VWS V14.00,2013-03-10 00:59:00,
2013-03-09 19:04:00,68.9,62.8,29.39,ESE,107,8.0,15.0,81,0.00,,---,0.00,0.00,VWS V14.00,2013-03-10 01:04:00,
2013-03-09 19:09:00,68.7,63.0,29.38,SE,134,15.0,23.0,82,0.00,,---,0.00,0.00,VWS V14.00,2013-03-10 01:09:00,
2013-03-09 19:14:00,68.6,62.9,29.38,ESE,104,15.0,21.0,82,0.00,,---,0.00,0.00,VWS V14.00,2013-03-10 01:14:00,
2013-03-09 19:19:00,68.5,63.1,29.38,SSE,154,11.0,21.0,83,0.00,,---,0.00,0.00,VWS V14.00,2013-03-10 01:19:00,
2013-03-09 19:24:00,68.4,63.0,29.39,SSE,147,17.0,21.0,83,0.00,,---,0.00,0.00,VWS V14.00,2013-03-10 01:24:00,
2013-03-09 19:29:00,68.3,62.9,29.39,SE,139,11.0,23.0,83,0.00,,---,0.00,0.00,VWS V14.00,2013-03-10 01:29:00,
2013-03-09 19:34:00,68.2,62.8,29.37,SE,128,11.0,26.0,83,0.00,,---,0.00,0.00,VWS V14.00,2013-03-10 01:34:00,
2013-03-09 19:39:00,68.0,62.7,29.37,SE,144,22.0,26.0,83,0.00,,---,0.00,0.00,VWS V14.00,2013-03-10 01:39:00,
2013-03-09 19:44:00,67.9,62.9,29.37,SE,127,13.0,19.0,84,0.00,,---,0.00,0.00,VWS V14.00,2013-03-10 01:44:00,
2013-03-09 19:49:00,67.9,62.9,29.37,SE,137,13.0,20.0,84,0.00,,---,0.00,0.00,VWS V14.00,2013-03-10 01:49:00,
2013-03-09 19:54:00,67.8,62.8,29.36,SE,126,18.0,28.0,84,0.00,,---,0.00,0.00,VWS V14.00,2013-03-10 01:54:00,
2013-03-09 19:59:00,67.7,62.7,29.36,SE,134,12.0,28.0,84,0.00,,---,0.00,0.00,VWS V14.00,2013-03-10 01:59:00,
2013-03-09 20:04:00,67.7,62.7,29.38,SSE,148,15.0,21.0,84,0.00,,---,0.00,0.00,VWS V14.00,2013-03-10 02:04:00,
2013-03-09 20:09:00,67.6,62.9,29.38,SE,144,19.0,30.0,85,0.00,,---,0.00,0.00,VWS V14.00,2013-03-10 02:09:00,
2013-03-09 20:14:00,67.4,62.7,29.37,SE,144,10.0,21.0,85,0.00,,---,0.00,0.00,VWS V14.00,2013-03-10 02:14:00,
2013-03-09 20:19:00,67.2,62.9,29.36,SE,135,11.0,24.0,86,0.00,,---,0.00,0.00,VWS V14.00,2013-03-10 02:19:00,
2013-03-09 20:24:00,67.0,62.7,29.36,SE,144,15.0,20.0,86,0.00,,---,0.00,0.00,VWS V14.00,2013-03-10 02:24:00,
2013-03-09 20:29:00,66.8,62.8,29.36,SE,128,16.0,25.0,87,0.00,,---,0.00,0.00,VWS V14.00,2013-03-10 02:29:00,
2013-03-09 20:34:00,66.7,62.7,29.37,SE,135,5.0,15.0,87,0.00,,---,0.00,0.00,VWS V14.00,2013-03-10 02:34:00,
2013-03-09 20:39:00,66.5,62.5,29.36,SSE,151,18.0,23.0,87,0.00,,---,0.00,0.00,VWS V14.00,2013-03-10 02:39:00,
2013-03-09 20:44:00,66.3,62.0,29.36,SE,133,9.0,17.0,86,0.00,,---,0.00,0.00,VWS V14.00,2013-03-10 02:44:00,
2013-03-09 20:49:00,66.1,61.1,29.36,SSE,162,11.0,20.0,84,0.00,,---,0.00,0.00,VWS V14.00,2013-03-10 02:49:00,
2013-03-09 20:54:00,66.1,61.1,29.37,SE,138,9.0,13.0,84,0.00,,---,0.00,0.00,VWS V14.00,2013-03-10 02:54:00,
2013-03-09 20:59:00,66.1,61.5,29.38,SE,126,4.0,19.0,85,0.00,,---,0.00,0.00,VWS V14.00,2013-03-10 02:59:00,
2013-03-09 21:04:00,66.1,61.8,29.39,ESE,112,8.0,16.0,86,0.00,,---,0.00,0.00,VWS V14.00,2013-03-10 03:04:00,
2013-03-09 21:09:00,66.2,62.2,29.38,SE,145,15.0,16.0,87,0.00,,---,0.00,0.00,VWS V14.00,2013-03-10 03:09:00,
2013-03-09 21:14:00,66.3,62.6,29.39,SE,143,10.0,19.0,88,0.00,,---,0.00,0.00,VWS V14.00,2013-03-10 03:14:00,
2013-03-09 21:19:00,66.3,62.6,29.40,SE,127,7.0,19.0,88,0.00,,---,0.00,0.00,VWS V14.00,2013-03-10 03:19:00,
2013-03-09 21:23:00,66.2,62.9,29.42,SE,140,17.0,18.0,89,0.00,,---,0.00,0.00,VWS V14.00,2013-03-10 03:23:00,
2013-03-09 21:28:00,66.0,62.7,29.42,ESE,119,8.0,18.0,89,0.02,,---,0.02,0.00,VWS V14.00,2013-03-10 03:28:00,
2013-03-09 21:33:00,65.8,62.5,29.44,SSE,149,2.0,4.0,89,0.05,,---,0.05,0.00,VWS V14.00,2013-03-10 03:33:00,
2013-03-09 21:38:00,65.7,62.7,29.47,SSE,150,2.0,9.0,90,0.10,,---,0.10,0.00,VWS V14.00,2013-03-10 03:38:00,
2013-03-09 21:43:00,65.3,62.3,29.48,NW,313,12.0,16.0,90,0.21,,---,0.21,0.00,VWS V14.00,2013-03-10 03:43:00,
2013-03-09 21:48:00,63.0,59.1,29.47,NW,307,6.0,17.0,87,0.44,,---,0.44,0.00,VWS V14.00,2013-03-10 03:48:00,
2013-03-09 21:53:00,61.0,57.4,29.45,NW,321,8.0,12.0,88,0.71,,---,0.71,0.00,VWS V14.00,2013-03-10 03:53:00,
2013-03-09 21:58:00,60.0,56.8,29.46,NW,307,7.0,12.0,89,0.86,,---,0.86,0.00,VWS V14.00,2013-03-10 03:58:00,
2013-03-09 22:03:00,59.5,56.9,29.49,West,273,6.0,12.0,91,0.88,,---,0.88,0.00,VWS V14.00,2013-03-10 04:03:00,
2013-03-09 22:08:00,59.1,56.5,29.48,West,274,5.0,12.0,91,0.90,,---,0.90,0.00,VWS V14.00,2013-03-10 04:08:00,
2013-03-09 22:13:00,58.9,56.6,29.45,SE,143,7.0,7.0,92,0.92,,---,0.92,0.00,VWS V14.00,2013-03-10 04:13:00,
2013-03-09 22:18:00,58.9,56.6,29.50,WNW,288,4.0,9.0,92,0.93,,---,0.93,0.00,VWS V14.00,2013-03-10 04:18:00,
2013-03-09 22:23:00,58.8,56.8,29.52,WNW,298,9.0,12.0,93,0.93,,---,0.93,0.00,VWS V14.00,2013-03-10 04:23:00,
2013-03-09 22:28:00,58.7,56.7,29.52,NW,323,12.0,14.0,93,0.96,,---,0.96,0.00,VWS V14.00,2013-03-10 04:28:00,
2013-03-09 22:33:00,58.5,56.5,29.48,WNW,286,5.0,7.0,93,0.97,,---,1.00,0.00,VWS V14.00,2013-03-10 04:33:00,
2013-03-09 22:38:00,58.4,56.4,29.49,West,275,7.0,11.0,93,0.99,,---,1.02,0.00,VWS V14.00,2013-03-10 04:38:00,
2013-03-09 22:43:00,58.3,56.6,29.52,WNW,293,4.0,7.0,94,0.88,,---,1.03,0.00,VWS V14.00,2013-03-10 04:43:00,
2013-03-09 22:48:00,58.3,56.6,29.53,WNW,293,0.0,7.0,94,0.88,,---,1.03,0.00,VWS V14.00,2013-03-10 04:48:00,
2013-03-09 22:54:00,58.2,56.5,29.54,WNW,293,2.0,4.0,94,0.42,,---,1.03,0.00,VWS V14.00,2013-03-10 04:54:00,
2013-03-09 22:58:00,58.3,56.6,29.53,WNW,293,4.0,7.0,94,0.42,,---,1.03,0.00,VWS V14.00,2013-03-10 04:58:00,
2013-03-09 23:00:00,58.3,56.6,29.53,WNW,293,4.0,7.0,94,0.42,,---,1.03,0.00,VWS V14.00,2013-03-10 05:00:00,
2013-03-09 23:05:00,58.3,56.6,29.55,WNW,289,2.0,8.0,94,0.16,,---,1.03,0.00,VWS V14.00,2013-03-10 05:05:00,
2013-03-09 23:10:00,58.4,56.7,29.54,WNW,289,1.0,8.0,94,0.16,,---,1.03,0.00,VWS V14.00,2013-03-10 05:10:00,
2013-03-09 23:15:00,58.3,56.6,29.55,WNW,289,6.0,6.0,94,0.12,,---,1.03,0.00,VWS V14.00,2013-03-10 05:15:00,
2013-03-09 23:20:00,58.3,56.9,29.54,WNW,289,2.0,7.0,95,0.12,,---,1.03,0.00,VWS V14.00,2013-03-10 05:20:00,
2013-03-09 23:25:00,58.2,56.8,29.56,WNW,289,5.0,6.0,95,0.10,,---,1.03,0.00,VWS V14.00,2013-03-10 05:25:00,
2013-03-09 23:30:00,58.0,56.3,29.57,WNW,288,6.0,8.0,94,0.10,,---,1.03,0.00,VWS V14.00,2013-03-10 05:30:00,
2013-03-09 23:35:00,57.8,56.1,29.56,WNW,302,5.0,8.0,94,0.05,,---,1.04,0.00,VWS V14.00,2013-03-10 05:35:00,
2013-03-09 23:40:00,57.6,56.2,29.54,NNW,329,1.0,8.0,95,0.05,,---,1.04,0.00,VWS V14.00,2013-03-10 05:40:00,
2013-03-09 23:45:00,57.4,55.7,29.53,NNW,329,2.0,5.0,94,0.01,,---,1.04,0.00,VWS V14.00,2013-03-10 05:45:00,
2013-03-09 23:50:00,57.2,55.5,29.52,NNW,329,2.0,5.0,94,0.01,,---,1.04,0.00,VWS V14.00,2013-03-10 05:50:00,
2013-03-09 23:55:00,57.0,55.6,29.54,West,269,2.0,4.0,95,0.01,,---,1.04,0.00,VWS V14.00,2013-03-10 05:55:00,